{"data":{"norad_id":60474,"intl_designator":"2024-149G","name":"ROCK","alt_names":[],"object_type":"PAYLOAD","status":"ACTIVE","operator":null,"country":"US","launch_date":"2024-08-16","launch_site_code":"AFWTR","launch_vehicle":null,"mission":null,"orbit_class":"UNKNOWN","rcs_meters":null,"size_class":null,"mass_kg":null,"dimensions":null,"purposes":[],"wikipedia_slug":null,"has_3d_model":false,"image_url":null,"decayed_at":null,"tle_current":{"epoch":"2026-09-22T17:10:45.301440Z","epoch_age_seconds":94821,"freshness":"FRESH","line1":"1 60474U 24149G   26265.71580210  .00012185  00000+0  28561-3 0  9997","line2":"2 60474  97.3723 350.0064 0000658 198.0770 162.0454 15.42229226117289","mean_motion":15.42229226,"eccentricity":6.58e-5,"inclination_deg":97.3723,"raan_deg":350.0064,"arg_perigee_deg":198.077,"mean_anomaly_deg":162.0454,"bstar":0.00028561,"rev_number":11728,"period_min":93.371333892748,"perigee_km":439.08302713573,"apogee_km":439.9802323274,"semimajor_km":6817.6686297316,"source":"CELESTRAK","updated_at":"2026-09-23T09:00:20.652908Z"}}}